contact:dominique.lefevre@mio.osupytheas.fr, maurice.libes@osupytheas.fr, didier.mallarino@osupytheas.fr
Project:EMSO http://www.emso-fr.org/EMSO-France
Depth: 2436.0 m
Title:EMSO Ligure Ouest : Data MII capteur CSTAR
DateTime,Latitude,Longitude,Instrument_Serial,Reference_Counts,Signal_Counts,Corrected_Signal_raw_counts,Calculated_Beam_c_inverse_meters,Internal_thermistor_counts
DateTime,Latitude,Longitude,Instrument_Serial,Reference_Counts,Signal_Counts,Corrected_Signal_raw_counts,Calculated_Beam_c_inverse_meters,Internal_thermistor_counts
2024-05-07T00:01:37,42.805,6.029,CST-1368DR,4084,4180,10843,01.459,553
2024-05-07T00:04:39,42.805,6.029,CST-1368DR,4084,4177,10835,01.462,553
2024-05-07T00:07:41,42.805,6.029,CST-1368DR,4084,4183,10852,01.456,553
2024-05-07T00:10:42,42.805,6.029,CST-1368DR,4084,4186,10860,01.453,553
2024-05-07T00:13:44,42.805,6.029,CST-1368DR,4084,4182,10848,01.457,553
2024-05-07T00:16:45,42.805,6.029,CST-1368DR,4084,4182,10850,01.457,553
2024-05-07T00:19:47,42.805,6.029,CST-1368DR,4084,4184,10853,01.455,553
2024-05-07T00:22:48,42.805,6.029,CST-1368DR,4084,4183,10852,01.456,553
2024-05-07T00:25:50,42.805,6.029,CST-1368DR,4084,4180,10845,01.458,553
2024-05-07T00:28:52,42.805,6.029,CST-1368DR,4084,4186,10858,01.454,553
2024-05-07T00:31:53,42.805,6.029,CST-1368DR,4084,4184,10854,01.455,553
2024-05-07T00:34:55,42.805,6.029,CST-1368DR,4084,4183,10850,01.457,553
2024-05-07T00:37:56,42.805,6.029,CST-1368DR,4084,4186,10860,01.453,553
2024-05-07T00:40:58,42.805,6.029,CST-1368DR,4084,4185,10857,01.454,553
2024-05-07T00:43:59,42.805,6.029,CST-1368DR,4084,4185,10856,01.454,553
2024-05-07T00:47:01,42.805,6.029,CST-1368DR,4084,4182,10849,01.457,553
2024-05-07T00:50:03,42.805,6.029,CST-1368DR,4084,4182,10848,01.457,553
2024-05-07T00:53:04,42.805,6.029,CST-1368DR,4084,4184,10853,01.455,553
2024-05-07T00:56:06,42.805,6.029,CST-1368DR,4084,4183,10852,01.456,553
2024-05-07T00:59:07,42.805,6.029,CST-1368DR,4084,4183,10852,01.456,553
2024-05-07T01:02:09,42.805,6.029,CST-1368DR,4084,4184,10854,01.455,553
2024-05-07T01:05:11,42.805,6.029,CST-1368DR,4084,4182,10849,01.457,553
2024-05-07T01:08:12,42.805,6.029,CST-1368DR,4084,4186,10859,01.453,553
2024-05-07T01:11:14,42.805,6.029,CST-1368DR,4084,4183,10852,01.456,553
2024-05-07T01:14:15,42.805,6.029,CST-1368DR,4084,4181,10847,01.458,553
2024-05-07T01:17:17,42.805,6.029,CST-1368DR,4084,4181,10845,01.458,553
2024-05-07T01:20:18,42.805,6.029,CST-1368DR,4084,4180,10843,01.459,553
2024-05-07T01:23:20,42.805,6.029,CST-1368DR,4084,4180,10843,01.459,553
2024-05-07T01:26:22,42.805,6.029,CST-1368DR,4084,4183,10852,01.456,553
2024-05-07T01:29:23,42.805,6.029,CST-1368DR,4084,4181,10845,01.458,553
2024-05-07T01:32:25,42.805,6.029,CST-1368DR,4084,4185,10858,01.454,553
2024-05-07T01:35:26,42.805,6.029,CST-1368DR,4084,4184,10854,01.455,553
2024-05-07T01:38:28,42.805,6.029,CST-1368DR,4084,4182,10850,01.457,553
2024-05-07T01:41:29,42.805,6.029,CST-1368DR,4084,4181,10847,01.458,553
2024-05-07T01:44:31,42.805,6.029,CST-1368DR,4084,4184,10853,01.455,553
2024-05-07T01:47:33,42.805,6.029,CST-1368DR,4084,4185,10856,01.454,553
2024-05-07T01:50:34,42.805,6.029,CST-1368DR,4084,4181,10846,01.458,553
2024-05-07T01:53:36,42.805,6.029,CST-1368DR,4084,4187,10862,01.452,553
2024-05-07T01:56:37,42.805,6.029,CST-1368DR,4084,4179,10841,01.460,553
2024-05-07T01:59:39,42.805,6.029,CST-1368DR,4084,4182,10850,01.457,553
2024-05-07T02:02:40,42.805,6.029,CST-1368DR,4084,4182,10848,01.457,553
2024-05-07T02:05:42,42.805,6.029,CST-1368DR,4084,4182,10848,01.457,553
2024-05-07T02:08:44,42.805,6.029,CST-1368DR,4084,4181,10846,01.458,553
2024-05-07T02:11:45,42.805,6.029,CST-1368DR,4084,4185,10856,01.454,553
2024-05-07T02:14:47,42.805,6.029,CST-1368DR,4084,4182,10849,01.457,553
2024-05-07T02:17:48,42.805,6.029,CST-1368DR,4084,4178,10839,01.461,553
2024-05-07T02:20:50,42.805,6.029,CST-1368DR,4084,4183,10852,01.456,553
2024-05-07T02:23:52,42.805,6.029,CST-1368DR,4084,4183,10850,01.457,553
2024-05-07T02:26:53,42.805,6.029,CST-1368DR,4084,4185,10857,01.454,553
2024-05-07T02:29:55,42.805,6.029,CST-1368DR,4084,4183,10852,01.456,553
2024-05-07T02:32:56,42.805,6.029,CST-1368DR,4084,4180,10843,01.459,553
2024-05-07T02:35:58,42.805,6.029,CST-1368DR,4084,4184,10854,01.455,553
2024-05-07T02:38:59,42.805,6.029,CST-1368DR,4084,4183,10852,01.456,553
2024-05-07T02:42:01,42.805,6.029,CST-1368DR,4084,4181,10845,01.458,553
2024-05-07T02:45:03,42.805,6.029,CST-1368DR,4084,4180,10845,01.458,553
2024-05-07T02:48:04,42.805,6.029,CST-1368DR,4084,4180,10843,01.459,553
2024-05-07T02:51:06,42.805,6.029,CST-1368DR,4084,4184,10854,01.455,553
2024-05-07T02:54:07,42.805,6.029,CST-1368DR,4084,4184,10854,01.455,553
2024-05-07T02:57:09,42.805,6.029,CST-1368DR,4084,4183,10850,01.457,553
2024-05-07T03:00:10,42.805,6.029,CST-1368DR,4084,4184,10854,01.455,553
2024-05-07T03:03:12,42.805,6.029,CST-1368DR,4084,4181,10846,01.458,553
2024-05-07T03:06:14,42.805,6.029,CST-1368DR,4084,4182,10848,01.457,553
2024-05-07T03:09:15,42.805,6.029,CST-1368DR,4084,4185,10858,01.454,553
2024-05-07T03:12:17,42.805,6.029,CST-1368DR,4084,4181,10847,01.458,553
2024-05-07T03:15:18,42.805,6.029,CST-1368DR,4084,4181,10846,01.458,553
2024-05-07T03:18:20,42.805,6.029,CST-1368DR,4084,4181,10847,01.458,553
2024-05-07T03:21:21,42.805,6.029,CST-1368DR,4084,4181,10846,01.458,553
2024-05-07T03:24:23,42.805,6.029,CST-1368DR,4084,4183,10850,01.457,553
2024-05-07T03:27:25,42.805,6.029,CST-1368DR,4084,4186,10858,01.454,553
2024-05-07T03:30:26,42.805,6.029,CST-1368DR,4084,4186,10860,01.453,553
2024-05-07T03:33:28,42.805,6.029,CST-1368DR,4084,4186,10858,01.454,553
2024-05-07T03:36:29,42.805,6.029,CST-1368DR,4084,4185,10856,01.454,553
2024-05-07T03:39:31,42.805,6.029,CST-1368DR,4084,4182,10848,01.457,553
2024-05-07T03:42:33,42.805,6.029,CST-1368DR,4084,4185,10858,01.454,553
2024-05-07T03:45:34,42.805,6.029,CST-1368DR,4084,4182,10848,01.457,553
2024-05-07T03:48:36,42.805,6.029,CST-1368DR,4084,4186,10858,01.454,553
2024-05-07T03:51:37,42.805,6.029,CST-1368DR,4084,4187,10862,01.452,553
2024-05-07T03:54:39,42.805,6.029,CST-1368DR,4084,4187,10861,01.452,553
2024-05-07T03:57:40,42.805,6.029,CST-1368DR,4084,4184,10854,01.455,553
2024-05-07T04:00:43,42.805,6.029,CST-1368DR,4084,4176,10833,01.463,553
2024-05-07T04:03:45,42.805,6.029,CST-1368DR,4084,4180,10844,01.459,553
2024-05-07T04:06:46,42.805,6.029,CST-1368DR,4084,4177,10837,01.461,553
2024-05-07T04:09:48,42.805,6.029,CST-1368DR,4084,4175,10832,01.463,553
2024-05-07T04:12:49,42.805,6.029,CST-1368DR,4084,4177,10836,01.462,553
2024-05-07T04:15:51,42.805,6.029,CST-1368DR,4084,4175,10832,01.463,553
2024-05-07T04:18:53,42.805,6.029,CST-1368DR,4084,4172,10822,01.467,553
2024-05-07T04:21:54,42.805,6.029,CST-1368DR,4084,4172,10823,01.466,553
2024-05-07T04:24:56,42.805,6.029,CST-1368DR,4084,4177,10836,01.462,553
2024-05-07T04:27:57,42.805,6.029,CST-1368DR,4084,4174,10828,01.465,553
2024-05-07T04:30:59,42.805,6.029,CST-1368DR,4084,4175,10830,01.464,553
2024-05-07T04:34:00,42.805,6.029,CST-1368DR,4084,4175,10830,01.464,553
2024-05-07T04:37:02,42.805,6.029,CST-1368DR,4084,4181,10845,01.458,553
2024-05-07T04:40:04,42.805,6.029,CST-1368DR,4084,4179,10842,01.459,553
2024-05-07T04:43:05,42.805,6.029,CST-1368DR,4084,4171,10819,01.468,553
2024-05-07T04:46:07,42.805,6.029,CST-1368DR,4084,4172,10823,01.466,553
2024-05-07T04:49:08,42.805,6.029,CST-1368DR,4084,4173,10826,01.465,553
2024-05-07T04:52:10,42.805,6.029,CST-1368DR,4084,4173,10824,01.466,553
2024-05-07T04:55:12,42.805,6.029,CST-1368DR,4084,4174,10828,01.465,553
2024-05-07T04:58:13,42.805,6.029,CST-1368DR,4084,4176,10832,01.463,553
2024-05-07T05:01:15,42.805,6.029,CST-1368DR,4084,4178,10839,01.461,553
2024-05-07T05:04:16,42.805,6.029,CST-1368DR,4084,4174,10828,01.465,553
2024-05-07T05:07:18,42.805,6.029,CST-1368DR,4084,4176,10834,01.462,553
2024-05-07T05:10:19,42.805,6.029,CST-1368DR,4084,4178,10839,01.461,553
2024-05-07T05:13:21,42.805,6.029,CST-1368DR,4084,4175,10830,01.464,553
2024-05-07T05:16:23,42.805,6.029,CST-1368DR,4084,4176,10834,01.462,553
2024-05-07T05:19:24,42.805,6.029,CST-1368DR,4084,4171,10821,01.467,553
2024-05-07T05:22:26,42.805,6.029,CST-1368DR,4084,4177,10835,01.462,553
2024-05-07T05:25:27,42.805,6.029,CST-1368DR,4084,4176,10834,01.462,553
2024-05-07T05:28:29,42.805,6.029,CST-1368DR,4084,4173,10825,01.466,553
2024-05-07T05:31:30,42.805,6.029,CST-1368DR,4084,4171,10821,01.467,553
2024-05-07T05:34:32,42.805,6.029,CST-1368DR,4084,4176,10834,01.462,553
2024-05-07T05:37:34,42.805,6.029,CST-1368DR,4084,4170,10817,01.469,553
2024-05-07T05:40:35,42.805,6.029,CST-1368DR,4084,4175,10831,01.464,553
2024-05-07T05:43:37,42.805,6.029,CST-1368DR,4084,4175,10830,01.464,553
2024-05-07T05:46:38,42.805,6.029,CST-1368DR,4084,4174,10828,01.465,553
2024-05-07T05:49:40,42.805,6.029,CST-1368DR,4084,4172,10824,01.466,553
2024-05-07T05:52:42,42.805,6.029,CST-1368DR,4084,4175,10830,01.464,553
2024-05-07T05:55:43,42.805,6.029,CST-1368DR,4084,4173,10826,01.465,553
2024-05-07T05:58:45,42.805,6.029,CST-1368DR,4084,4175,10830,01.464,553
2024-05-07T06:01:46,42.805,6.029,CST-1368DR,4084,4174,10828,01.465,553
2024-05-07T06:04:48,42.805,6.029,CST-1368DR,4084,4179,10841,01.460,553
2024-05-07T06:07:49,42.805,6.029,CST-1368DR,4084,4172,10824,01.466,553
2024-05-07T06:10:51,42.805,6.029,CST-1368DR,4084,4170,10819,01.468,553
2024-05-07T06:13:53,42.805,6.029,CST-1368DR,4084,4168,10813,01.470,553
2024-05-07T06:16:54,42.805,6.029,CST-1368DR,4084,4174,10828,01.465,553
2024-05-07T06:19:56,42.805,6.029,CST-1368DR,4084,4172,10824,01.466,553
2024-05-07T06:22:57,42.805,6.029,CST-1368DR,4084,4175,10832,01.463,553
2024-05-07T06:25:59,42.805,6.029,CST-1368DR,4084,4176,10834,01.462,553
2024-05-07T06:29:00,42.805,6.029,CST-1368DR,4084,4173,10826,01.465,553
2024-05-07T06:32:02,42.805,6.029,CST-1368DR,4084,4173,10826,01.465,553
2024-05-07T06:35:04,42.805,6.029,CST-1368DR,4084,4173,10826,01.465,553
2024-05-07T06:38:05,42.805,6.029,CST-1368DR,4084,4171,10821,01.467,553
2024-05-07T06:41:07,42.805,6.029,CST-1368DR,4084,4172,10823,01.466,553
2024-05-07T06:44:08,42.805,6.029,CST-1368DR,4084,4170,10817,01.469,553
2024-05-07T06:47:10,42.805,6.029,CST-1368DR,4084,4173,10826,01.465,553
2024-05-07T06:50:11,42.805,6.029,CST-1368DR,4084,4176,10832,01.463,553
2024-05-07T06:53:13,42.805,6.029,CST-1368DR,4084,4174,10828,01.465,553
2024-05-07T06:56:15,42.805,6.029,CST-1368DR,4084,4170,10819,01.468,553
2024-05-07T06:59:16,42.805,6.029,CST-1368DR,4084,4173,10825,01.466,553
2024-05-07T07:02:18,42.805,6.029,CST-1368DR,4084,4173,10826,01.465,553
2024-05-07T07:05:19,42.805,6.029,CST-1368DR,4084,4174,10828,01.465,553
2024-05-07T07:08:21,42.805,6.029,CST-1368DR,4084,4174,10828,01.465,553
2024-05-07T07:11:23,42.805,6.029,CST-1368DR,4084,4176,10832,01.463,553
2024-05-07T07:14:24,42.805,6.029,CST-1368DR,4084,4173,10826,01.465,553
2024-05-07T07:17:26,42.805,6.029,CST-1368DR,4084,4177,10835,01.462,553
2024-05-07T07:20:27,42.805,6.029,CST-1368DR,4084,4174,10827,01.465,553
2024-05-07T07:23:29,42.805,6.029,CST-1368DR,4084,4173,10826,01.465,553
2024-05-07T07:26:30,42.805,6.029,CST-1368DR,4084,4173,10825,01.466,553
2024-05-07T07:29:32,42.805,6.029,CST-1368DR,4084,4170,10817,01.469,553
2024-05-07T07:32:34,42.805,6.029,CST-1368DR,4084,4173,10825,01.466,553
2024-05-07T07:35:35,42.805,6.029,CST-1368DR,4084,4175,10832,01.463,553
2024-05-07T07:38:37,42.805,6.029,CST-1368DR,4084,4175,10832,01.463,553
2024-05-07T07:41:38,42.805,6.029,CST-1368DR,4084,4177,10836,01.462,553
2024-05-07T07:44:40,42.805,6.029,CST-1368DR,4084,4170,10817,01.469,553
2024-05-07T07:47:41,42.805,6.029,CST-1368DR,4084,4172,10823,01.466,553
2024-05-07T07:50:43,42.805,6.029,CST-1368DR,4084,4172,10824,01.466,553
2024-05-07T07:53:45,42.805,6.029,CST-1368DR,4084,4171,10821,01.467,553
2024-05-07T07:56:46,42.805,6.029,CST-1368DR,4084,4170,10819,01.468,553
2024-05-07T07:59:48,42.805,6.029,CST-1368DR,4084,4167,10811,01.471,553
2024-05-07T08:02:50,42.805,6.029,CST-1368DR,4084,4170,10817,01.469,553
2024-05-07T08:05:51,42.805,6.029,CST-1368DR,4084,4173,10824,01.466,553
2024-05-07T08:08:53,42.805,6.029,CST-1368DR,4084,4172,10823,01.466,553
2024-05-07T08:11:54,42.805,6.029,CST-1368DR,4084,4174,10827,01.465,553
2024-05-07T08:14:56,42.805,6.029,CST-1368DR,4084,4173,10826,01.465,553
2024-05-07T08:17:57,42.805,6.029,CST-1368DR,4084,4172,10823,01.466,553
2024-05-07T08:20:59,42.805,6.029,CST-1368DR,4084,4173,10825,01.466,553
2024-05-07T08:24:01,42.805,6.029,CST-1368DR,4084,4174,10828,01.465,553
2024-05-07T08:27:02,42.805,6.029,CST-1368DR,4084,4172,10822,01.467,553
2024-05-07T08:30:04,42.805,6.029,CST-1368DR,4084,4171,10819,01.468,553
2024-05-07T08:33:05,42.805,6.029,CST-1368DR,4084,4173,10825,01.466,553
2024-05-07T08:36:07,42.805,6.029,CST-1368DR,4084,4166,10808,01.472,553
2024-05-07T08:39:08,42.805,6.029,CST-1368DR,4084,4157,10784,01.481,553
2024-05-07T08:42:10,42.805,6.029,CST-1368DR,4084,4158,10786,01.480,553
2024-05-07T08:45:12,42.805,6.029,CST-1368DR,4084,4160,10791,01.478,553
2024-05-07T08:48:13,42.805,6.029,CST-1368DR,4084,4161,10795,01.477,553
2024-05-07T08:51:15,42.805,6.029,CST-1368DR,4084,4161,10793,01.478,553
2024-05-07T08:54:16,42.805,6.029,CST-1368DR,4084,4159,10788,01.479,553
2024-05-07T08:57:18,42.805,6.029,CST-1368DR,4084,4163,10799,01.475,553
2024-05-07T09:00:20,42.805,6.029,CST-1368DR,4084,4161,10793,01.478,553
2024-05-07T09:03:21,42.805,6.029,CST-1368DR,4084,4159,10789,01.479,553
2024-05-07T09:06:23,42.805,6.029,CST-1368DR,4083,4161,10798,01.476,553
2024-05-07T09:09:24,42.805,6.029,CST-1368DR,4083,4161,10796,01.476,553
2024-05-07T09:12:26,42.805,6.029,CST-1368DR,4084,4163,10800,01.475,553
2024-05-07T09:15:27,42.805,6.029,CST-1368DR,4084,4162,10797,01.476,553
2024-05-07T09:18:29,42.805,6.029,CST-1368DR,4083,4163,10802,01.474,553
2024-05-07T09:21:31,42.805,6.029,CST-1368DR,4084,4163,10799,01.475,553
2024-05-07T09:24:32,42.805,6.029,CST-1368DR,4084,4161,10795,01.477,553
2024-05-07T09:27:34,42.805,6.029,CST-1368DR,4084,4159,10789,01.479,553
2024-05-07T09:30:35,42.805,6.029,CST-1368DR,4084,4162,10797,01.476,553
2024-05-07T09:33:37,42.805,6.029,CST-1368DR,4084,4160,10793,01.478,553
2024-05-07T09:36:38,42.805,6.029,CST-1368DR,4083,4161,10797,01.476,553
2024-05-07T09:39:40,42.805,6.029,CST-1368DR,4083,4160,10795,01.477,553
2024-05-07T09:42:42,42.805,6.029,CST-1368DR,4084,4162,10798,01.476,553
2024-05-07T09:45:43,42.805,6.029,CST-1368DR,4084,4161,10795,01.477,553
2024-05-07T09:48:45,42.805,6.029,CST-1368DR,4084,4161,10793,01.478,553
2024-05-07T09:51:46,42.805,6.029,CST-1368DR,4083,4160,10793,01.478,553
2024-05-07T09:54:48,42.805,6.029,CST-1368DR,4083,4159,10793,01.478,553
2024-05-07T09:57:50,42.805,6.029,CST-1368DR,4083,4163,10801,01.475,553
2024-05-07T10:00:51,42.805,6.029,CST-1368DR,4084,4162,10797,01.476,553
2024-05-07T10:03:52,42.805,6.029,CST-1368DR,4083,4149,10766,01.488,553
2024-05-07T10:06:54,42.805,6.029,CST-1368DR,4084,4150,10767,01.487,553
2024-05-07T10:09:55,42.805,6.029,CST-1368DR,4083,4153,10776,01.484,553
2024-05-07T10:12:57,42.805,6.029,CST-1368DR,4083,4154,10778,01.483,553
2024-05-07T10:15:58,42.805,6.029,CST-1368DR,4084,4157,10784,01.481,553
2024-05-07T10:19:00,42.805,6.029,CST-1368DR,4084,4153,10775,01.484,553
2024-05-07T10:22:02,42.805,6.029,CST-1368DR,4083,4154,10778,01.483,553
2024-05-07T10:25:03,42.805,6.029,CST-1368DR,4083,4153,10777,01.484,553
2024-05-07T10:28:05,42.805,6.029,CST-1368DR,4083,4151,10771,01.486,553
2024-05-07T10:31:06,42.805,6.029,CST-1368DR,4084,4154,10776,01.484,553
2024-05-07T10:34:08,42.805,6.029,CST-1368DR,4083,4155,10781,01.482,553
2024-05-07T10:37:09,42.805,6.029,CST-1368DR,4083,4156,10783,01.481,553
2024-05-07T10:40:11,42.805,6.029,CST-1368DR,4083,4155,10782,01.482,553
2024-05-07T10:43:13,42.805,6.029,CST-1368DR,4083,4155,10782,01.482,553
2024-05-07T10:46:14,42.805,6.029,CST-1368DR,4083,4154,10778,01.483,553
2024-05-07T10:49:16,42.805,6.029,CST-1368DR,4083,4154,10778,01.483,553
2024-05-07T10:52:17,42.805,6.029,CST-1368DR,4083,4153,10776,01.484,553
2024-05-07T10:55:19,42.805,6.029,CST-1368DR,4083,4155,10782,01.482,553
2024-05-07T10:58:21,42.805,6.029,CST-1368DR,4083,4154,10778,01.483,553
2024-05-07T11:01:22,42.805,6.029,CST-1368DR,4083,4156,10784,01.481,553
2024-05-07T11:04:24,42.805,6.029,CST-1368DR,4083,4156,10784,01.481,553
2024-05-07T11:07:25,42.805,6.029,CST-1368DR,4083,4154,10778,01.483,553
2024-05-07T11:10:27,42.805,6.029,CST-1368DR,4083,4155,10780,01.482,553
2024-05-07T11:13:28,42.805,6.029,CST-1368DR,4083,4153,10776,01.484,553
2024-05-07T11:16:30,42.805,6.029,CST-1368DR,4083,4155,10782,01.482,553
2024-05-07T11:19:32,42.805,6.029,CST-1368DR,4084,4154,10777,01.484,553
2024-05-07T11:22:33,42.805,6.029,CST-1368DR,4083,4151,10771,01.486,553
2024-05-07T11:25:35,42.805,6.029,CST-1368DR,4083,4154,10778,01.483,553
2024-05-07T11:28:36,42.805,6.029,CST-1368DR,4083,4156,10783,01.481,553
2024-05-07T11:31:38,42.805,6.029,CST-1368DR,4083,4155,10780,01.482,553
2024-05-07T11:34:39,42.805,6.029,CST-1368DR,4083,4155,10780,01.482,553
2024-05-07T11:37:41,42.805,6.029,CST-1368DR,4083,4154,10778,01.483,553
2024-05-07T11:40:43,42.805,6.029,CST-1368DR,4083,4156,10784,01.481,553
2024-05-07T11:43:44,42.805,6.029,CST-1368DR,4083,4154,10778,01.483,553
2024-05-07T11:46:46,42.805,6.029,CST-1368DR,4083,4153,10776,01.484,553
2024-05-07T11:49:47,42.805,6.029,CST-1368DR,4083,4156,10784,01.481,553
2024-05-07T11:52:49,42.805,6.029,CST-1368DR,4083,4154,10778,01.483,553
2024-05-07T11:55:51,42.805,6.029,CST-1368DR,4083,4155,10782,01.482,553
2024-05-07T11:58:52,42.805,6.029,CST-1368DR,4083,4152,10774,01.485,553
2024-05-07T12:01:54,42.805,6.029,CST-1368DR,4083,4153,10775,01.484,553
2024-05-07T12:04:55,42.805,6.029,CST-1368DR,4083,4153,10776,01.484,553
2024-05-07T12:07:57,42.805,6.029,CST-1368DR,4083,4155,10780,01.482,553
2024-05-07T12:10:58,42.805,6.029,CST-1368DR,4083,4153,10777,01.484,553
2024-05-07T12:14:00,42.805,6.029,CST-1368DR,4083,4153,10777,01.484,553
2024-05-07T12:17:02,42.805,6.029,CST-1368DR,4083,4153,10775,01.484,553
2024-05-07T12:20:03,42.805,6.029,CST-1368DR,4083,4152,10773,01.485,553
2024-05-07T12:23:05,42.805,6.029,CST-1368DR,4083,4152,10774,01.485,553
2024-05-07T12:26:06,42.805,6.029,CST-1368DR,4083,4152,10774,01.485,553
2024-05-07T12:29:08,42.805,6.029,CST-1368DR,4083,4151,10771,01.486,553
2024-05-07T12:32:09,42.805,6.029,CST-1368DR,4083,4156,10784,01.481,553
2024-05-07T12:35:11,42.805,6.029,CST-1368DR,4083,4155,10781,01.482,553
2024-05-07T12:38:13,42.805,6.029,CST-1368DR,4083,4152,10774,01.485,553
2024-05-07T12:41:14,42.805,6.029,CST-1368DR,4083,4153,10776,01.484,553
2024-05-07T12:44:16,42.805,6.029,CST-1368DR,4083,4152,10774,01.485,553
2024-05-07T12:47:17,42.805,6.029,CST-1368DR,4083,4150,10769,01.486,553
2024-05-07T12:50:19,42.805,6.029,CST-1368DR,4083,4151,10772,01.485,553
2024-05-07T12:53:20,42.805,6.029,CST-1368DR,4083,4153,10777,01.484,553
2024-05-07T12:56:22,42.805,6.029,CST-1368DR,4083,4151,10771,01.486,553
2024-05-07T12:59:24,42.805,6.029,CST-1368DR,4083,4150,10769,01.486,553
2024-05-07T13:02:25,42.805,6.029,CST-1368DR,4083,4152,10774,01.485,553
2024-05-07T13:05:27,42.805,6.029,CST-1368DR,4083,4151,10772,01.485,553
2024-05-07T13:08:28,42.805,6.029,CST-1368DR,4083,4151,10771,01.486,553
2024-05-07T13:11:30,42.805,6.029,CST-1368DR,4083,4150,10768,01.487,553
2024-05-07T13:14:32,42.805,6.029,CST-1368DR,4083,4149,10765,01.488,553
2024-05-07T13:17:33,42.805,6.029,CST-1368DR,4083,4152,10775,01.484,553
2024-05-07T13:20:35,42.805,6.029,CST-1368DR,4083,4153,10776,01.484,553
2024-05-07T13:23:36,42.805,6.029,CST-1368DR,4083,4157,10786,01.480,553
2024-05-07T13:26:38,42.805,6.029,CST-1368DR,4083,4151,10772,01.485,553
2024-05-07T13:29:39,42.805,6.029,CST-1368DR,4083,4152,10773,01.485,553
2024-05-07T13:32:41,42.805,6.029,CST-1368DR,4083,4154,10778,01.483,553
2024-05-07T13:35:43,42.805,6.029,CST-1368DR,4083,4154,10780,01.482,553
2024-05-07T13:38:44,42.805,6.029,CST-1368DR,4083,4149,10766,01.488,553
2024-05-07T13:41:46,42.805,6.029,CST-1368DR,4083,4150,10769,01.486,553
2024-05-07T13:44:47,42.805,6.029,CST-1368DR,4083,4152,10773,01.485,553
2024-05-07T13:47:49,42.805,6.029,CST-1368DR,4083,4152,10773,01.485,553
2024-05-07T13:50:50,42.805,6.029,CST-1368DR,4083,4149,10766,01.488,553
2024-05-07T13:53:52,42.805,6.029,CST-1368DR,4083,4151,10771,01.486,553
2024-05-07T13:56:54,42.805,6.029,CST-1368DR,4083,4150,10767,01.487,553
2024-05-07T13:59:55,42.805,6.029,CST-1368DR,4083,4155,10780,01.482,553
2024-05-07T14:02:57,42.805,6.029,CST-1368DR,4083,4150,10767,01.487,553
2024-05-07T14:05:58,42.805,6.029,CST-1368DR,4083,4151,10772,01.485,553
2024-05-07T14:09:00,42.805,6.029,CST-1368DR,4083,4151,10771,01.486,553
2024-05-07T14:12:02,42.805,6.029,CST-1368DR,4083,4148,10764,01.488,553
2024-05-07T14:15:03,42.805,6.029,CST-1368DR,4083,4149,10766,01.488,553
2024-05-07T14:18:05,42.805,6.029,CST-1368DR,4083,4149,10767,01.487,553
2024-05-07T14:21:06,42.805,6.029,CST-1368DR,4083,4149,10765,01.488,553
2024-05-07T14:24:08,42.805,6.029,CST-1368DR,4083,4150,10768,01.487,553
2024-05-07T14:27:09,42.805,6.029,CST-1368DR,4083,4148,10764,01.488,553
2024-05-07T14:30:11,42.805,6.029,CST-1368DR,4083,4145,10755,01.492,553
2024-05-07T14:33:13,42.805,6.029,CST-1368DR,4083,4144,10753,01.492,553
2024-05-07T14:36:14,42.805,6.029,CST-1368DR,4083,4155,10780,01.482,553
2024-05-07T14:39:16,42.805,6.029,CST-1368DR,4083,4156,10784,01.481,553
2024-05-07T14:42:17,42.805,6.029,CST-1368DR,4083,4157,10786,01.480,553
2024-05-07T14:45:19,42.805,6.029,CST-1368DR,4083,4156,10785,01.481,553
2024-05-07T14:48:20,42.805,6.029,CST-1368DR,4083,4157,10786,01.480,553
2024-05-07T14:51:22,42.805,6.029,CST-1368DR,4083,4157,10786,01.480,553
2024-05-07T14:54:24,42.805,6.029,CST-1368DR,4083,4159,10792,01.478,553
2024-05-07T14:57:25,42.805,6.029,CST-1368DR,4083,4158,10790,01.479,553
2024-05-07T15:00:27,42.805,6.029,CST-1368DR,4083,4155,10781,01.482,553
2024-05-07T15:03:28,42.805,6.029,CST-1368DR,4083,4157,10786,01.480,553
2024-05-07T15:06:30,42.805,6.029,CST-1368DR,4083,4158,10789,01.479,553
2024-05-07T15:09:32,42.805,6.029,CST-1368DR,4083,4159,10791,01.478,553
2024-05-07T15:12:33,42.805,6.029,CST-1368DR,4083,4158,10789,01.479,553
2024-05-07T15:15:35,42.805,6.029,CST-1368DR,4083,4156,10785,01.481,553
2024-05-07T15:18:36,42.805,6.029,CST-1368DR,4083,4160,10793,01.478,553
2024-05-07T15:21:38,42.805,6.029,CST-1368DR,4083,4158,10788,01.479,553
2024-05-07T15:24:39,42.805,6.029,CST-1368DR,4083,4159,10791,01.478,553
2024-05-07T15:27:41,42.805,6.029,CST-1368DR,4083,4160,10794,01.477,553
2024-05-07T15:30:43,42.805,6.029,CST-1368DR,4083,4160,10795,01.477,553
2024-05-07T15:33:44,42.805,6.029,CST-1368DR,4083,4159,10793,01.478,553
2024-05-07T15:36:46,42.805,6.029,CST-1368DR,4083,4158,10789,01.479,553
2024-05-07T15:39:47,42.805,6.029,CST-1368DR,4083,4156,10784,01.481,553
2024-05-07T15:42:49,42.805,6.029,CST-1368DR,4083,4164,10804,01.474,553
2024-05-07T15:45:50,42.805,6.029,CST-1368DR,4083,4161,10798,01.476,553
2024-05-07T15:48:52,42.805,6.029,CST-1368DR,4083,4169,10818,01.468,553
2024-05-07T15:51:54,42.805,6.029,CST-1368DR,4083,4166,10810,01.471,553
2024-05-07T15:54:55,42.805,6.029,CST-1368DR,4083,4161,10797,01.476,553
2024-05-07T15:57:57,42.805,6.029,CST-1368DR,4083,4164,10804,01.474,553
2024-05-07T16:00:58,42.805,6.029,CST-1368DR,4083,4162,10800,01.475,553
2024-05-07T16:04:00,42.805,6.029,CST-1368DR,4083,4163,10803,01.474,553
2024-05-07T16:07:02,42.805,6.029,CST-1368DR,4083,4162,10800,01.475,553
2024-05-07T16:10:03,42.805,6.029,CST-1368DR,4083,4165,10806,01.473,553
2024-05-07T16:13:05,42.805,6.029,CST-1368DR,4083,4165,10806,01.473,553
2024-05-07T16:16:06,42.805,6.029,CST-1368DR,4083,4166,10809,01.472,553
2024-05-07T16:19:08,42.805,6.029,CST-1368DR,4083,4167,10813,01.470,553
2024-05-07T16:22:09,42.805,6.029,CST-1368DR,4083,4167,10813,01.470,553
2024-05-07T16:25:11,42.805,6.029,CST-1368DR,4083,4166,10809,01.472,553
2024-05-07T16:28:13,42.805,6.029,CST-1368DR,4083,4164,10806,01.473,553
2024-05-07T16:31:14,42.805,6.029,CST-1368DR,4083,4167,10813,01.470,553
2024-05-07T16:34:16,42.805,6.029,CST-1368DR,4083,4168,10815,01.469,553
2024-05-07T16:37:17,42.805,6.029,CST-1368DR,4083,4169,10818,01.468,553